Location: Newark
(37.9500°N, 13.4167°E)
Time: 12:59:43
(UTC+00:00)

N. Korean satellite - Visible Passes

Search period start: 26 January 2020 00:00
Search period end: 05 February 2020 00:00
Orbit: 454 x 507 km, 97.2° (Epoch: 25 January)

Date Brightness Start Highest point End Pass type
(mag) Time Alt. Az. Time Alt. Az. Time Alt. Az.
26 Jan 10.1 03:49:30 10° ENE 03:50:34 11° E 03:51:38 10° ESE visible
26 Jan 7.0 05:20:44 10° N 05:24:05 38° WNW 05:27:28 10° SW visible
27 Jan 6.5 04:55:03 10° N 04:58:39 89° W 05:02:17 10° SSW visible
27 Jan 9.7 17:03:21 10° SW 17:05:31 16° W 17:07:43 10° NW visible
28 Jan 8.0 04:29:44 10° NNE 04:33:08 39° E 04:36:34 10° SSE visible
29 Jan 9.5 04:04:57 10° NE 04:07:33 18° E 04:10:09 10° SE visible
29 Jan 7.7 05:37:56 10° NNW 05:40:52 23° WNW 05:43:48 10° SW visible
30 Jan 6.7 05:11:58 10° N 05:15:28 50° WNW 05:19:02 10° SSW visible
31 Jan 6.9 04:46:23 10° NNE 04:50:01 69° E 04:53:41 10° S visible
31 Jan 9.6 16:54:11 10° SW 16:56:48 20° W 16:59:27 10° NW visible
01 Feb 8.6 04:21:13 10° NE 04:24:29 30° E 04:27:45 10° SSE visible
02 Feb 9.8 03:56:44 10° ENE 03:58:51 15° E 04:00:58 10° SE visible
02 Feb 7.4 05:29:03 10° N 05:32:16 30° WNW 05:35:30 10° SW visible
03 Feb 6.5 05:03:13 10° N 05:06:52 67° WNW 05:10:31 10° SSW visible
03 Feb 10.1 17:12:14 10° WSW 17:13:44 12° W 17:15:16 10° WNW visible
04 Feb 7.5 04:37:46 10° NNE 04:41:22 52° E 04:44:58 10° S visible
